Time,TemperatureF,DewpointF,PressureIn,WindDirection,WindDirectionDegrees,WindSpeedMPH,WindSpeedGustMPH,Humidity,HourlyPrecipIn,Conditions,Clouds,dailyrainin,SoftwareType,DateUTC
2013-04-04 00:00:00,46.7,22.0,30.23,NNE,24,3.2,14.0,37,0.00,,CLR,0.00,VWS V14.00,2013-04-04 04:00:00,
2013-04-04 00:01:00,46.2,22.4,30.22,NNE,14,0.0,8.7,39,0.00,,CLR,0.00,VWS V14.00,2013-04-04 04:01:00,
2013-04-04 00:02:00,46.0,22.3,30.22,ENE,59,0.0,8.7,39,0.00,,CLR,0.00,VWS V14.00,2013-04-04 04:02:00,
2013-04-04 00:03:00,46.2,22.3,30.22,NNE,21,4.3,8.7,38,0.00,,CLR,0.00,VWS V14.00,2013-04-04 04:03:00,
2013-04-04 00:04:00,46.1,22.3,30.22,NNE,14,0.0,8.7,39,0.00,,CLR,0.00,VWS V14.00,2013-04-04 04:04:00,
2013-04-04 00:05:00,46.0,21.2,30.23,NNE,30,0.0,3.2,37,0.00,,CLR,0.00,VWS V14.00,2013-04-04 04:05:00,
2013-04-04 00:06:00,46.1,22.2,30.22,North,3,4.8,8.7,38,0.00,,CLR,0.00,VWS V14.00,2013-04-04 04:06:00,
2013-04-04 00:07:00,45.9,22.0,30.22,NE,37,5.7,8.7,38,0.00,,CLR,0.00,VWS V14.00,2013-04-04 04:07:00,
2013-04-04 00:09:00,46.1,21.7,30.22,NE,48,3.4,8.7,38,0.00,,CLR,0.00,VWS V14.00,2013-04-04 04:09:00,
2013-04-04 00:10:00,46.4,21.7,30.23,NNE,30,0.0,3.2,37,0.00,,CLR,0.00,VWS V14.00,2013-04-04 04:10:00,
2013-04-04 00:12:00,46.1,21.5,30.22,ENE,60,0.0,8.7,37,0.00,,CLR,0.00,VWS V14.00,2013-04-04 04:12:00,
2013-04-04 00:14:00,45.3,20.7,30.21,NNE,15,3.4,8.7,37,0.00,,CLR,0.00,VWS V14.00,2013-04-04 04:14:00,
2013-04-04 00:15:00,45.7,20.7,30.23,NE,45,0.0,3.2,37,0.00,,CLR,0.00,VWS V14.00,2013-04-04 04:15:00,
2013-04-04 00:20:00,47.0,22.2,30.23,NE,45,0.0,0.0,37,0.00,,CLR,0.00,VWS V14.00,2013-04-04 04:20:00,
2013-04-04 00:25:00,46.8,22.2,30.23,NNE,15,0.0,3.5,37,0.00,,CLR,0.00,VWS V14.00,2013-04-04 04:25:00,
2013-04-04 00:30:00,46.8,22.2,30.23,NNE,15,0.0,3.5,37,0.00,,CLR,0.00,VWS V14.00,2013-04-04 04:30:00,
2013-04-04 00:35:00,46.6,22.1,30.22,NE,41,3.0,6.3,38,0.00,,CLR,0.00,VWS V14.00,2013-04-04 04:35:00,
2013-04-04 00:40:00,46.5,22.3,30.22,NNE,18,0.0,6.7,38,0.00,,CLR,0.00,VWS V14.00,2013-04-04 04:40:00,
2013-04-04 00:45:00,46.2,22.0,30.23,NE,38,0.0,6.7,38,0.00,,CLR,0.00,VWS V14.00,2013-04-04 04:45:00,
2013-04-04 00:50:00,46.1,21.9,30.22,NE,39,0.0,6.3,38,0.00,,CLR,0.00,VWS V14.00,2013-04-04 04:50:00,
2013-04-04 00:55:00,44.8,20.8,30.22,North,10,0.0,8.7,38,0.00,,CLR,0.00,VWS V14.00,2013-04-04 04:55:00,
2013-04-04 01:00:00,45.9,22.0,30.22,NNE,14,3.0,8.7,38,0.00,,CLR,0.00,VWS V14.00,2013-04-04 05:00:00,
2013-04-04 01:05:00,46.2,22.5,30.21,NNE,14,0.0,8.7,39,0.00,,CLR,0.00,VWS V14.00,2013-04-04 05:05:00,
2013-04-04 01:10:00,46.1,21.6,30.22,East,79,2.4,8.7,38,0.00,,CLR,0.00,VWS V14.00,2013-04-04 05:10:00,
2013-04-04 01:15:00,46.0,21.3,30.21,North,359,0.0,8.7,37,0.00,,CLR,0.00,VWS V14.00,2013-04-04 05:15:00,
2013-04-04 01:20:00,46.0,21.6,30.22,ENE,69,0.0,8.8,38,0.00,,CLR,0.00,VWS V14.00,2013-04-04 05:20:00,
2013-04-04 01:25:00,46.4,22.1,30.22,East,82,2.6,8.8,38,0.00,,CLR,0.00,VWS V14.00,2013-04-04 05:25:00,
2013-04-04 01:31:00,45.5,21.2,30.22,East,80,0.0,8.8,38,0.00,,CLR,0.00,VWS V14.00,2013-04-04 05:31:00,
2013-04-04 01:36:00,45.3,20.7,30.22,NE,46,0.0,18.8,37,0.00,,CLR,0.00,VWS V14.00,2013-04-04 05:36:00,
2013-04-04 01:41:00,44.9,20.2,30.23,ENE,73,0.0,18.8,37,0.00,,CLR,0.00,VWS V14.00,2013-04-04 05:41:00,
2013-04-04 01:46:00,43.8,19.2,30.23,NNE,21,0.0,18.8,37,0.00,,CLR,0.00,VWS V14.00,2013-04-04 05:46:00,
2013-04-04 01:51:00,45.4,20.5,30.23,NNE,24,0.0,18.8,37,0.00,,CLR,0.00,VWS V14.00,2013-04-04 05:51:00,
2013-04-04 01:56:00,44.1,19.4,30.23,NNE,30,0.0,18.8,37,0.00,,CLR,0.00,VWS V14.00,2013-04-04 05:56:00,
2013-04-04 02:01:00,43.9,19.2,30.22,ENE,63,3.5,18.8,37,0.00,,CLR,0.00,VWS V14.00,2013-04-04 06:01:00,
2013-04-04 02:06:00,44.4,19.8,30.23,ENE,58,4.4,18.8,37,0.00,,CLR,0.00,VWS V14.00,2013-04-04 06:06:00,
2013-04-04 02:11:00,44.2,19.8,30.22,East,91,0.0,18.8,37,0.00,,CLR,0.00,VWS V14.00,2013-04-04 06:11:00,
2013-04-04 02:16:00,43.9,19.8,30.22,NNE,25,0.0,18.8,38,0.00,,CLR,0.00,VWS V14.00,2013-04-04 06:16:00,
2013-04-04 02:21:00,44.1,20.4,30.22,NE,34,4.3,18.8,38,0.00,,CLR,0.00,VWS V14.00,2013-04-04 06:21:00,
2013-04-04 02:26:00,44.3,21.0,30.22,ENE,65,0.0,18.8,39,0.00,,CLR,0.00,VWS V14.00,2013-04-04 06:26:00,
2013-04-04 02:31:00,43.0,20.1,30.22,ENE,68,3.4,18.8,40,0.00,,CLR,0.00,VWS V14.00,2013-04-04 06:31:00,
2013-04-04 02:36:00,43.9,21.4,30.22,ESE,117,3.5,18.8,40,0.00,,CLR,0.00,VWS V14.00,2013-04-04 06:36:00,
2013-04-04 02:41:00,43.9,21.7,30.23,NNE,27,0.0,18.8,41,0.00,,CLR,0.00,VWS V14.00,2013-04-04 06:41:00,
2013-04-04 02:46:00,43.8,21.8,30.23,ESE,108,0.0,18.8,41,0.00,,CLR,0.00,VWS V14.00,2013-04-04 06:46:00,
2013-04-04 02:51:00,43.6,22.0,30.23,ENE,70,0.0,18.8,42,0.00,,CLR,0.00,VWS V14.00,2013-04-04 06:51:00,
2013-04-04 02:56:00,43.4,22.0,30.23,SE,132,0.0,18.8,42,0.00,,CLR,0.00,VWS V14.00,2013-04-04 06:56:00,
2013-04-04 03:01:00,43.4,22.2,30.23,ENE,63,0.0,18.8,43,0.00,,CLR,0.00,VWS V14.00,2013-04-04 07:01:00,
2013-04-04 03:06:00,43.0,22.0,30.23,East,87,14.0,18.8,43,0.00,,CLR,0.00,VWS V14.00,2013-04-04 07:06:00,
2013-04-04 03:11:00,42.9,22.0,30.23,ENE,76,5.8,18.8,43,0.00,,CLR,0.00,VWS V14.00,2013-04-04 07:11:00,
2013-04-04 03:16:00,42.7,22.2,30.23,SE,127,0.0,18.8,44,0.00,,CLR,0.00,VWS V14.00,2013-04-04 07:16:00,
2013-04-04 03:21:00,42.5,21.9,30.23,ENE,70,6.5,18.8,44,0.00,,CLR,0.00,VWS V14.00,2013-04-04 07:21:00,
2013-04-04 03:26:00,42.5,21.9,30.23,ENE,66,6.1,18.8,44,0.00,,CLR,0.00,VWS V14.00,2013-04-04 07:26:00,
2013-04-04 03:31:00,42.5,22.0,30.23,ENE,65,4.8,18.8,44,0.00,,CLR,0.00,VWS V14.00,2013-04-04 07:31:00,
2013-04-04 03:36:00,42.2,21.9,30.23,SE,128,0.0,18.8,44,0.00,,CLR,0.00,VWS V14.00,2013-04-04 07:36:00,
2013-04-04 03:41:00,42.2,22.1,30.24,East,97,0.0,18.8,44,0.00,,CLR,0.00,VWS V14.00,2013-04-04 07:41:00,
2013-04-04 03:46:00,42.1,21.9,30.24,ESE,107,7.9,18.8,44,0.00,,CLR,0.00,VWS V14.00,2013-04-04 07:46:00,
2013-04-04 03:51:00,42.0,22.0,30.23,East,90,0.0,18.8,45,0.00,,CLR,0.00,VWS V14.00,2013-04-04 07:51:00,
2013-04-04 03:56:00,41.6,21.6,30.23,ESE,105,6.7,18.8,45,0.00,,CLR,0.00,VWS V14.00,2013-04-04 07:56:00,
2013-04-04 04:01:00,41.7,21.8,30.24,East,84,0.0,18.8,45,0.00,,CLR,0.00,VWS V14.00,2013-04-04 08:01:00,
2013-04-04 04:06:00,41.6,21.8,30.24,SE,141,0.0,18.8,45,0.00,,CLR,0.00,VWS V14.00,2013-04-04 08:06:00,
2013-04-04 04:11:00,41.6,22.0,30.24,ENE,69,0.0,18.8,45,0.00,,CLR,0.00,VWS V14.00,2013-04-04 08:11:00,
2013-04-04 04:16:00,41.4,21.9,30.24,ENE,69,3.3,18.8,45,0.00,,CLR,0.00,VWS V14.00,2013-04-04 08:16:00,
2013-04-04 04:21:00,41.4,22.1,30.24,NE,51,0.0,18.8,46,0.00,,CLR,0.00,VWS V14.00,2013-04-04 08:21:00,
2013-04-04 04:26:00,41.2,21.9,30.24,ESE,108,7.5,18.8,46,0.00,,CLR,0.00,VWS V14.00,2013-04-04 08:26:00,
2013-04-04 04:31:00,41.2,21.8,30.24,East,93,8.3,18.8,46,0.00,,CLR,0.00,VWS V14.00,2013-04-04 08:31:00,
2013-04-04 04:36:00,41.1,21.8,30.24,ESE,115,4.7,18.8,46,0.00,,CLR,0.00,VWS V14.00,2013-04-04 08:36:00,
2013-04-04 04:41:00,41.2,21.9,30.24,NE,44,0.0,18.8,46,0.00,,CLR,0.00,VWS V14.00,2013-04-04 08:41:00,
2013-04-04 04:46:00,41.0,21.7,30.23,ENE,59,4.2,18.8,46,0.00,,CLR,0.00,VWS V14.00,2013-04-04 08:46:00,
2013-04-04 04:52:00,41.0,21.8,30.23,NNE,25,0.0,18.8,46,0.00,,CLR,0.00,VWS V14.00,2013-04-04 08:52:00,
2013-04-04 04:57:00,40.9,22.1,30.23,ENE,62,0.0,18.8,47,0.00,,CLR,0.00,VWS V14.00,2013-04-04 08:57:00,
2013-04-04 05:02:00,41.0,22.4,30.23,East,94,0.0,18.8,47,0.00,,CLR,0.00,VWS V14.00,2013-04-04 09:02:00,
2013-04-04 05:07:00,41.0,22.5,30.23,East,100,0.0,18.8,47,0.00,,CLR,0.00,VWS V14.00,2013-04-04 09:07:00,
2013-04-04 05:12:00,40.9,22.5,30.23,NE,38,3.1,18.8,48,0.00,,CLR,0.00,VWS V14.00,2013-04-04 09:12:00,
2013-04-04 05:17:00,40.7,22.6,30.23,NNE,20,0.0,18.8,48,0.00,,CLR,0.00,VWS V14.00,2013-04-04 09:17:00,
2013-04-04 05:22:00,40.7,22.9,30.23,SE,129,4.8,18.8,49,0.00,,CLR,0.00,VWS V14.00,2013-04-04 09:22:00,
2013-04-04 05:27:00,40.5,22.9,30.23,ENE,60,5.1,18.8,49,0.00,,CLR,0.00,VWS V14.00,2013-04-04 09:27:00,
2013-04-04 05:32:00,40.4,23.0,30.23,ENE,63,3.4,18.8,50,0.00,,CLR,0.00,VWS V14.00,2013-04-04 09:32:00,
2013-04-04 05:37:00,40.0,22.9,30.23,ENE,59,0.0,18.8,50,0.00,,CLR,0.00,VWS V14.00,2013-04-04 09:37:00,
2013-04-04 05:42:00,39.7,22.8,30.23,NE,46,0.0,18.8,50,0.00,,CLR,0.00,VWS V14.00,2013-04-04 09:42:00,
2013-04-04 05:47:00,39.5,23.0,30.23,ESE,115,8.0,18.8,51,0.00,,CLR,0.00,VWS V14.00,2013-04-04 09:47:00,
2013-04-04 05:52:00,39.3,22.8,30.22,NE,39,0.0,18.8,51,0.00,,CLR,0.00,VWS V14.00,2013-04-04 09:52:00,
2013-04-04 05:57:00,38.7,22.5,30.23,ENE,69,0.0,18.8,52,0.00,,CLR,0.00,VWS V14.00,2013-04-04 09:57:00,
2013-04-04 06:02:00,38.8,22.6,30.23,East,84,0.0,18.8,52,0.00,,CLR,0.00,VWS V14.00,2013-04-04 10:02:00,
2013-04-04 06:07:00,39.4,23.3,30.23,East,83,3.5,18.8,52,0.00,,CLR,0.00,VWS V14.00,2013-04-04 10:07:00,
2013-04-04 06:12:00,38.4,22.6,30.24,ENE,75,3.4,18.8,53,0.00,,CLR,0.00,VWS V14.00,2013-04-04 10:12:00,
2013-04-04 06:17:00,38.2,22.5,30.24,East,97,0.0,18.8,53,0.00,,CLR,0.00,VWS V14.00,2013-04-04 10:17:00,
2013-04-04 06:22:00,39.0,23.4,30.24,ENE,63,0.0,18.8,53,0.00,,CLR,0.00,VWS V14.00,2013-04-04 10:22:00,
2013-04-04 06:27:00,38.9,23.5,30.24,NNE,21,0.0,18.8,54,0.00,,CLR,0.00,VWS V14.00,2013-04-04 10:27:00,
2013-04-04 06:32:00,39.1,23.8,30.24,ENE,58,1.7,18.8,54,0.00,,CLR,0.00,VWS V14.00,2013-04-04 10:32:00,
2013-04-04 06:37:00,38.5,23.5,30.25,NNE,15,3.0,18.8,54,0.00,,CLR,0.00,VWS V14.00,2013-04-04 10:37:00,
2013-04-04 06:42:00,38.4,23.4,30.24,ENE,73,3.2,18.8,54,0.00,,CLR,0.00,VWS V14.00,2013-04-04 10:42:00,
2013-04-04 06:47:00,38.2,23.3,30.25,East,87,0.0,18.8,55,0.00,,CLR,0.00,VWS V14.00,2013-04-04 10:47:00,
2013-04-04 06:52:00,37.8,23.1,30.25,East,96,0.0,18.8,55,0.00,,CLR,0.00,VWS V14.00,2013-04-04 10:52:00,
2013-04-04 06:57:00,37.7,23.3,30.25,East,79,0.0,18.8,56,0.00,,CLR,0.00,VWS V14.00,2013-04-04 10:57:00,
2013-04-04 07:02:00,37.6,23.3,30.25,NE,49,0.0,18.8,56,0.00,,CLR,0.00,VWS V14.00,2013-04-04 11:02:00,
2013-04-04 07:07:00,37.6,23.4,30.25,East,82,0.0,18.8,56,0.00,,CLR,0.00,VWS V14.00,2013-04-04 11:07:00,
2013-04-04 07:12:00,37.6,23.7,30.25,NNE,32,0.0,18.8,57,0.00,,CLR,0.00,VWS V14.00,2013-04-04 11:12:00,
2013-04-04 07:17:00,37.6,23.7,30.25,NE,48,2.8,18.8,57,0.00,,CLR,0.00,VWS V14.00,2013-04-04 11:17:00,
2013-04-04 07:22:00,37.2,23.6,30.26,NE,44,0.0,18.8,58,0.00,,CLR,0.00,VWS V14.00,2013-04-04 11:22:00,
2013-04-04 07:27:00,37.3,23.9,30.26,ESE,105,0.0,18.8,58,0.00,,CLR,0.00,VWS V14.00,2013-04-04 11:27:00,
2013-04-04 07:32:00,37.4,24.2,30.27,ESE,111,0.0,18.8,59,0.00,,CLR,0.00,VWS V14.00,2013-04-04 11:32:00,
2013-04-04 07:37:00,37.2,23.9,30.27,NE,52,0.0,18.8,58,0.00,,CLR,0.00,VWS V14.00,2013-04-04 11:37:00,
2013-04-04 07:42:00,36.8,23.6,30.27,East,89,0.0,18.8,58,0.00,,CLR,0.00,VWS V14.00,2013-04-04 11:42:00,
2013-04-04 07:47:00,38.3,25.0,30.27,ENE,72,0.0,18.8,58,0.00,,CLR,0.00,VWS V14.00,2013-04-04 11:47:00,
2013-04-04 07:52:00,38.3,25.2,30.27,SE,129,3.0,18.8,59,0.00,,CLR,0.00,VWS V14.00,2013-04-04 11:52:00,
2013-04-04 07:57:00,38.4,25.3,30.27,North,6,0.0,18.8,59,0.00,,CLR,0.00,VWS V14.00,2013-04-04 11:57:00,
2013-04-04 08:02:00,38.5,25.4,30.28,East,93,0.0,18.8,59,0.00,,CLR,0.00,VWS V14.00,2013-04-04 12:02:00,
2013-04-04 08:07:00,38.4,25.3,30.28,North,3,0.0,18.8,59,0.00,,CLR,0.00,VWS V14.00,2013-04-04 12:07:00,
2013-04-04 08:12:00,38.4,25.3,30.28,ENE,70,0.0,18.8,59,0.00,,CLR,0.00,VWS V14.00,2013-04-04 12:12:00,
2013-04-04 08:17:00,38.6,25.4,30.28,ENE,76,7.4,18.8,59,0.00,,CLR,0.00,VWS V14.00,2013-04-04 12:17:00,
2013-04-04 08:22:00,38.9,25.6,30.28,NNE,30,0.0,18.8,58,0.00,,CLR,0.00,VWS V14.00,2013-04-04 12:22:00,
2013-04-04 08:27:00,38.9,25.4,30.28,ENE,58,0.0,18.8,58,0.00,,CLR,0.00,VWS V14.00,2013-04-04 12:27:00,
2013-04-04 08:32:00,38.9,25.6,30.28,NE,56,4.9,18.8,59,0.00,,CLR,0.00,VWS V14.00,2013-04-04 12:32:00,
2013-04-04 08:37:00,39.0,25.8,30.28,ESE,122,0.0,18.8,59,0.00,,CLR,0.00,VWS V14.00,2013-04-04 12:37:00,
2013-04-04 08:42:00,39.1,25.9,30.28,ENE,62,0.0,18.8,59,0.00,,CLR,0.00,VWS V14.00,2013-04-04 12:42:00,
2013-04-04 08:47:00,38.9,25.7,30.28,East,84,0.0,18.8,59,0.00,,CLR,0.00,VWS V14.00,2013-04-04 12:47:00,
2013-04-04 08:52:00,39.4,25.9,30.28,ESE,107,5.1,18.8,58,0.00,,CLR,0.00,VWS V14.00,2013-04-04 12:52:00,
2013-04-04 08:57:00,38.3,25.0,30.28,ENE,62,10.4,18.8,58,0.00,,CLR,0.00,VWS V14.00,2013-04-04 12:57:00,
2013-04-04 09:02:00,38.1,25.2,30.27,NE,53,3.4,18.8,59,0.00,,CLR,0.00,VWS V14.00,2013-04-04 13:02:00,
2013-04-04 09:07:00,38.3,25.4,30.26,ENE,69,0.0,18.8,59,0.00,,CLR,0.00,VWS V14.00,2013-04-04 13:07:00,
2013-04-04 09:12:00,38.9,26.1,30.26,SE,129,3.3,18.8,60,0.00,,CLR,0.00,VWS V14.00,2013-04-04 13:12:00,
2013-04-04 09:17:00,40.0,26.8,30.26,East,89,4.2,18.8,59,0.00,,CLR,0.00,VWS V14.00,2013-04-04 13:17:00,
2013-04-04 09:22:00,40.2,27.1,30.26,ENE,62,5.5,18.8,59,0.00,,CLR,0.00,VWS V14.00,2013-04-04 13:22:00,
2013-04-04 09:27:00,39.9,27.1,30.26,SE,127,4.7,18.8,60,0.00,,CLR,0.00,VWS V14.00,2013-04-04 13:27:00,
2013-04-04 09:32:00,40.1,26.9,30.26,North,10,6.0,18.8,59,0.00,,CLR,0.00,VWS V14.00,2013-04-04 13:32:00,
2013-04-04 09:38:00,40.1,27.2,30.25,SSE,149,7.6,18.8,60,0.00,,CLR,0.00,VWS V14.00,2013-04-04 13:38:00,
2013-04-04 09:43:00,40.3,27.5,30.25,ESE,121,4.8,18.8,60,0.00,,CLR,0.00,VWS V14.00,2013-04-04 13:43:00,
2013-04-04 09:48:00,40.2,27.3,30.25,ENE,69,5.1,18.8,60,0.00,,BKN075,0.00,VWS V14.00,2013-04-04 13:48:00,
2013-04-04 09:53:00,40.2,27.4,30.25,South,169,8.7,18.8,60,0.00,,BKN075,0.00,VWS V14.00,2013-04-04 13:53:00,
2013-04-04 09:58:00,40.1,27.4,30.24,SE,146,4.6,18.8,60,0.00,,BKN075,0.00,VWS V14.00,2013-04-04 13:58:00,
2013-04-04 10:03:00,40.2,27.5,30.24,ESE,108,5.8,18.8,60,0.00,,BKN075,0.00,VWS V14.00,2013-04-04 14:03:00,
2013-04-04 10:08:00,40.4,27.5,30.24,NE,55,7.3,18.8,60,0.00,,BKN075,0.00,VWS V14.00,2013-04-04 14:08:00,
2013-04-04 10:13:00,40.5,27.4,30.24,ESE,118,5.5,18.8,59,0.00,,BKN075,0.00,VWS V14.00,2013-04-04 14:13:00,
2013-04-04 10:18:00,40.2,27.4,30.24,East,94,3.1,18.8,60,0.00,,BKN075,0.00,VWS V14.00,2013-04-04 14:18:00,
2013-04-04 10:23:00,40.5,27.4,30.24,ESE,117,3.1,18.8,59,0.00,,BKN075,0.00,VWS V14.00,2013-04-04 14:23:00,
2013-04-04 10:28:00,41.0,27.4,30.24,SSE,153,6.2,18.8,58,0.00,,BKN075,0.00,VWS V14.00,2013-04-04 14:28:00,
2013-04-04 10:33:00,41.0,27.3,30.24,East,93,8.8,18.8,58,0.00,,BKN075,0.00,VWS V14.00,2013-04-04 14:33:00,
2013-04-04 10:38:00,41.3,27.1,30.24,ESE,105,5.4,18.8,57,0.00,,BKN075,0.00,VWS V14.00,2013-04-04 14:38:00,
2013-04-04 10:43:00,40.3,26.3,30.24,ESE,114,8.8,18.8,57,0.00,,BKN075,0.00,VWS V14.00,2013-04-04 14:43:00,
2013-04-04 10:48:00,42.1,27.8,30.24,SSE,148,0.0,18.8,57,0.00,,OVC120,0.00,VWS V14.00,2013-04-04 14:48:00,
2013-04-04 10:53:00,42.3,27.7,30.24,SE,136,8.0,18.8,56,0.00,,OVC120,0.00,VWS V14.00,2013-04-04 14:53:00,
2013-04-04 10:58:00,41.9,27.3,30.24,ESE,110,7.3,18.8,56,0.00,,OVC120,0.00,VWS V14.00,2013-04-04 14:58:00,
2013-04-04 11:03:00,41.9,27.5,30.24,East,98,7.3,18.8,56,0.00,,OVC120,0.00,VWS V14.00,2013-04-04 15:03:00,
2013-04-04 11:08:00,41.9,27.1,30.24,SE,135,5.7,18.8,55,0.00,,OVC120,0.00,VWS V14.00,2013-04-04 15:08:00,
2013-04-04 11:13:00,42.3,27.3,30.24,SSW,197,0.0,18.8,55,0.00,,OVC120,0.00,VWS V14.00,2013-04-04 15:13:00,
2013-04-04 11:18:00,42.3,27.5,30.24,SE,146,0.0,18.8,55,0.00,,OVC120,0.00,VWS V14.00,2013-04-04 15:18:00,
2013-04-04 11:23:00,42.0,26.8,30.23,ESE,122,8.0,18.8,55,0.00,,OVC120,0.00,VWS V14.00,2013-04-04 15:23:00,
2013-04-04 11:28:00,41.8,27.1,30.23,SE,125,6.6,18.8,56,0.00,,OVC120,0.00,VWS V14.00,2013-04-04 15:28:00,
2013-04-04 11:33:00,42.5,27.3,30.23,SSE,163,4.9,18.8,55,0.00,,OVC120,0.00,VWS V14.00,2013-04-04 15:33:00,
2013-04-04 11:38:00,41.9,26.9,30.23,East,79,0.0,18.8,55,0.00,,OVC120,0.00,VWS V14.00,2013-04-04 15:38:00,
2013-04-04 11:43:00,41.8,27.2,30.22,ESE,108,5.8,18.8,56,0.00,,OVC120,0.00,VWS V14.00,2013-04-04 15:43:00,
2013-04-04 11:48:00,41.5,27.2,30.21,East,101,5.2,18.8,57,0.00,,OVC095,0.00,VWS V14.00,2013-04-04 15:48:00,
2013-04-04 11:53:00,41.3,29.8,30.21,SE,136,8.9,18.8,63,0.00,,OVC095,0.00,VWS V14.00,2013-04-04 15:53:00,
2013-04-04 11:58:00,40.4,29.7,30.21,East,100,8.9,18.8,65,0.00,,OVC095,0.00,VWS V14.00,2013-04-04 15:58:00,
2013-04-04 12:03:00,41.1,30.0,30.21,SSE,149,3.4,18.8,64,0.00,,OVC095,0.00,VWS V14.00,2013-04-04 16:03:00,
2013-04-04 12:08:00,41.7,30.6,30.20,SSE,158,5.2,18.8,64,0.00,,OVC095,0.00,VWS V14.00,2013-04-04 16:08:00,
2013-04-04 12:13:00,42.1,30.4,30.20,SSE,159,9.6,18.8,63,0.00,,OVC095,0.00,VWS V14.00,2013-04-04 16:13:00,
2013-04-04 12:18:00,42.2,30.1,30.20,East,84,4.8,18.8,62,0.00,,OVC095,0.00,VWS V14.00,2013-04-04 16:18:00,
2013-04-04 12:23:00,42.0,29.3,30.19,East,93,7.7,18.8,60,0.00,,OVC095,0.00,VWS V14.00,2013-04-04 16:23:00,
2013-04-04 12:28:00,42.3,30.1,30.19,ESE,122,3.2,18.8,62,0.00,,OVC095,0.00,VWS V14.00,2013-04-04 16:28:00,
2013-04-04 12:33:00,42.3,29.4,30.19,SE,134,3.5,18.8,60,0.00,,OVC095,0.00,VWS V14.00,2013-04-04 16:33:00,
2013-04-04 12:38:00,42.3,29.5,30.19,SE,125,3.5,18.8,60,0.00,,OVC095,0.00,VWS V14.00,2013-04-04 16:38:00,
2013-04-04 12:43:00,42.2,29.2,30.18,ENE,69,10.6,18.8,60,0.00,,OVC095,0.00,VWS V14.00,2013-04-04 16:43:00,
2013-04-04 12:48:00,42.8,29.2,30.18,ESE,117,8.4,18.8,58,0.00,,-RA,0.00,VWS V14.00,2013-04-04 16:48:00,
2013-04-04 12:53:00,43.1,29.4,30.18,ESE,105,13.2,18.8,58,0.00,,-RA,0.00,VWS V14.00,2013-04-04 16:53:00,
2013-04-04 12:58:00,42.4,28.8,30.18,ENE,65,2.4,18.8,58,0.00,,-RA,0.00,VWS V14.00,2013-04-04 16:58:00,
2013-04-04 13:03:00,41.3,27.7,30.18,SE,136,8.0,18.8,58,0.00,,-RA,0.00,VWS V14.00,2013-04-04 17:03:00,
2013-04-04 13:08:00,41.4,28.4,30.17,East,98,9.7,18.8,60,0.00,,-RA,0.00,VWS V14.00,2013-04-04 17:08:00,
2013-04-04 13:13:00,41.9,30.9,30.17,East,96,5.3,18.8,65,0.00,,-RA,0.00,VWS V14.00,2013-04-04 17:13:00,
2013-04-04 13:18:00,41.2,31.4,30.17,ENE,69,4.2,18.8,68,0.00,,-RA,0.00,VWS V14.00,2013-04-04 17:18:00,
2013-04-04 13:23:00,42.1,31.9,30.17,NE,35,1.5,18.8,67,0.00,,-RA,0.00,VWS V14.00,2013-04-04 17:23:00,
2013-04-04 13:28:00,42.6,32.2,30.17,ENE,65,0.0,18.8,66,0.00,,-RA,0.00,VWS V14.00,2013-04-04 17:28:00,
2013-04-04 13:33:00,43.0,32.8,30.17,ENE,77,0.0,18.8,67,0.00,,-RA,0.00,VWS V14.00,2013-04-04 17:33:00,
2013-04-04 13:38:00,42.7,33.0,30.16,ESE,108,4.9,18.8,68,0.01,,-RA,0.01,VWS V14.00,2013-04-04 17:38:00,
2013-04-04 13:43:00,42.5,33.8,30.15,East,91,0.0,18.8,71,0.01,,-RA,0.01,VWS V14.00,2013-04-04 17:43:00,
2013-04-04 13:48:00,41.7,34.2,30.15,East,91,0.0,18.8,74,0.01,,OVC095,0.01,VWS V14.00,2013-04-04 17:48:00,
2013-04-04 13:53:00,41.5,35.0,30.15,East,91,0.0,18.8,77,0.01,,OVC095,0.01,VWS V14.00,2013-04-04 17:53:00,
2013-04-04 13:58:00,41.4,35.4,30.15,East,91,0.0,18.8,79,0.02,,OVC095,0.02,VWS V14.00,2013-04-04 17:58:00,
2013-04-04 14:03:00,41.5,36.3,30.16,East,91,0.0,18.8,82,0.02,,OVC095,0.02,VWS V14.00,2013-04-04 18:03:00,
2013-04-04 14:08:00,41.8,37.4,30.16,East,91,0.0,18.8,84,0.03,,OVC095,0.04,VWS V14.00,2013-04-04 18:08:00,
2013-04-04 14:13:00,41.4,36.6,30.17,East,91,0.0,18.8,83,0.03,,OVC095,0.04,VWS V14.00,2013-04-04 18:13:00,
2013-04-04 14:18:00,40.7,36.5,30.18,East,91,0.0,18.8,85,0.04,,OVC095,0.05,VWS V14.00,2013-04-04 18:18:00,
2013-04-04 14:23:00,40.7,37.5,30.17,East,91,0.0,18.8,88,0.04,,OVC095,0.06,VWS V14.00,2013-04-04 18:23:00,
2013-04-04 14:28:00,40.6,37.8,30.17,East,91,0.0,18.8,90,0.05,,OVC095,0.07,VWS V14.00,2013-04-04 18:28:00,
2013-04-04 14:33:00,40.3,38.2,30.17,East,91,0.0,18.8,92,0.05,,OVC095,0.07,VWS V14.00,2013-04-04 18:33:00,
2013-04-04 14:38:00,40.1,38.7,30.17,East,91,0.0,18.8,95,0.04,,OVC095,0.07,VWS V14.00,2013-04-04 18:38:00,
2013-04-04 14:43:00,39.9,38.9,30.16,East,91,0.0,18.8,96,0.05,,OVC095,0.08,VWS V14.00,2013-04-04 18:43:00,
2013-04-04 14:48:00,39.5,38.8,30.15,East,91,0.0,18.8,97,0.06,,OVC055,0.09,VWS V14.00,2013-04-04 18:48:00,
2013-04-04 14:53:00,39.2,38.7,30.15,East,91,0.0,18.8,98,0.06,,OVC055,0.10,VWS V14.00,2013-04-04 18:53:00,
2013-04-04 14:58:00,38.9,38.6,30.14,East,91,0.0,18.8,99,0.07,,OVC055,0.11,VWS V14.00,2013-04-04 18:58:00,
2013-04-04 15:03:00,38.4,38.2,30.12,NE,37,3.5,18.8,99,0.06,,OVC055,0.12,VWS V14.00,2013-04-04 19:03:00,
2013-04-04 15:08:00,37.2,37.0,30.12,NE,38,4.3,18.8,99,0.06,,OVC055,0.12,VWS V14.00,2013-04-04 19:08:00,
2013-04-04 15:13:00,37.9,37.8,30.12,NNE,20,0.0,18.8,100,0.07,,OVC055,0.13,VWS V14.00,2013-04-04 19:13:00,
2013-04-04 15:18:00,36.2,36.2,30.12,NNE,14,4.5,18.8,100,0.07,,OVC055,0.14,VWS V14.00,2013-04-04 19:18:00,
2013-04-04 15:23:00,34.3,34.3,30.11,NNE,32,6.8,18.8,100,0.08,,OVC055,0.15,VWS V14.00,2013-04-04 19:23:00,
2013-04-04 15:28:00,35.0,35.0,30.11,NNE,17,3.2,18.8,100,0.08,,OVC055,0.16,VWS V14.00,2013-04-04 19:28:00,
2013-04-04 15:33:00,35.1,35.1,30.11,NNE,27,2.6,18.8,100,0.07,,OVC055,0.16,VWS V14.00,2013-04-04 19:33:00,
2013-04-04 15:38:00,35.7,35.7,30.11,NNE,22,0.0,18.8,100,0.08,,OVC055,0.17,VWS V14.00,2013-04-04 19:38:00,
2013-04-04 15:43:00,34.2,34.2,30.12,North,359,3.5,18.8,100,0.07,,OVC055,0.17,VWS V14.00,2013-04-04 19:43:00,
2013-04-04 15:48:00,34.6,34.6,30.13,NNW,335,0.0,18.8,100,0.08,,OVC060,0.18,VWS V14.00,2013-04-04 19:48:00,
2013-04-04 15:53:00,33.5,33.5,30.13,NNE,30,0.0,18.8,100,0.07,,OVC060,0.18,VWS V14.00,2013-04-04 19:53:00,
2013-04-04 15:58:00,34.7,34.7,30.12,NNE,32,8.9,18.8,100,0.06,,OVC060,0.18,VWS V14.00,2013-04-04 19:58:00,
2013-04-04 16:03:00,34.1,34.1,30.11,NNE,24,0.0,18.8,100,0.07,,OVC060,0.19,VWS V14.00,2013-04-04 20:03:00,
2013-04-04 16:08:00,33.3,33.3,30.10,NNE,32,4.2,18.8,100,0.06,,OVC060,0.19,VWS V14.00,2013-04-04 20:08:00,
2013-04-04 16:13:00,33.9,33.9,30.09,NE,52,2.7,18.8,100,0.07,,OVC060,0.20,VWS V14.00,2013-04-04 20:13:00,
2013-04-04 16:18:00,33.9,33.9,30.10,NE,38,0.0,18.8,100,0.06,,OVC060,0.20,VWS V14.00,2013-04-04 20:18:00,
2013-04-04 16:23:00,33.6,33.6,30.10,NE,37,0.0,18.8,100,0.06,,OVC060,0.20,VWS V14.00,2013-04-04 20:23:00,
2013-04-04 16:28:00,35.1,35.1,30.11,NNE,25,8.9,18.8,100,0.05,,OVC060,0.20,VWS V14.00,2013-04-04 20:28:00,
2013-04-04 16:33:00,35.8,35.8,30.08,ESE,122,5.7,18.8,100,0.05,,OVC060,0.20,VWS V14.00,2013-04-04 20:33:00,
2013-04-04 16:38:00,35.6,35.6,30.08,ENE,69,0.0,18.8,100,0.04,,OVC060,0.20,VWS V14.00,2013-04-04 20:38:00,
2013-04-04 16:43:00,35.7,35.7,30.08,NNE,24,8.6,18.8,100,0.05,,OVC060,0.21,VWS V14.00,2013-04-04 20:43:00,
2013-04-04 16:48:00,35.7,35.7,30.08,NE,34,0.0,18.8,100,0.05,,-RA,0.21,VWS V14.00,2013-04-04 20:48:00,
2013-04-04 16:53:00,34.9,34.9,30.08,NNE,13,3.5,18.8,100,0.04,,-RA,0.21,VWS V14.00,2013-04-04 20:53:00,
2013-04-04 16:58:00,34.9,34.9,30.07,NE,46,6.3,18.8,100,0.04,,-RA,0.21,VWS V14.00,2013-04-04 20:58:00,
2013-04-04 17:03:00,35.9,35.9,30.07,NNE,28,5.7,18.8,100,0.04,,-RA,0.21,VWS V14.00,2013-04-04 21:03:00,
2013-04-04 17:08:00,35.9,35.9,30.06,NNE,20,0.0,18.8,100,0.03,,-RA,0.21,VWS V14.00,2013-04-04 21:08:00,
2013-04-04 17:13:00,35.2,35.2,30.07,East,93,0.0,18.8,100,0.04,,-RA,0.22,VWS V14.00,2013-04-04 21:13:00,
2013-04-04 17:18:00,36.0,36.0,30.07,NNE,28,0.0,18.8,100,0.04,,-RA,0.22,VWS V14.00,2013-04-04 21:18:00,
2013-04-04 17:23:00,35.9,35.9,30.07,NE,56,0.0,18.8,100,0.03,,-RA,0.22,VWS V14.00,2013-04-04 21:23:00,
2013-04-04 17:29:00,35.9,35.9,30.07,North,8,0.0,18.8,100,0.04,,-RA,0.23,VWS V14.00,2013-04-04 21:29:00,
2013-04-04 17:34:00,35.9,35.9,30.05,NNE,15,0.0,18.8,100,0.05,,-RA,0.24,VWS V14.00,2013-04-04 21:34:00,
2013-04-04 17:39:00,35.3,35.3,30.05,NNE,14,5.0,18.8,100,0.05,,-RA,0.25,VWS V14.00,2013-04-04 21:39:00,
2013-04-04 17:44:00,35.3,35.3,30.05,NE,38,8.7,18.8,100,0.06,,-RA,0.26,VWS V14.00,2013-04-04 21:44:00,
2013-04-04 17:49:00,35.2,35.2,30.03,ENE,73,0.0,18.8,100,0.06,,RA,0.27,VWS V14.00,2013-04-04 21:49:00,
2013-04-04 17:54:00,35.2,35.2,30.02,NNE,15,5.3,20.2,100,0.07,,RA,0.28,VWS V14.00,2013-04-04 21:54:00,
2013-04-04 17:59:00,35.0,35.0,30.03,ENE,75,0.0,20.2,100,0.08,,RA,0.30,VWS V14.00,2013-04-04 21:59:00,
2013-04-04 18:04:00,33.8,33.8,30.02,ENE,66,0.0,20.2,100,0.08,,RA,0.31,VWS V14.00,2013-04-04 22:04:00,
2013-04-04 18:09:00,35.1,35.1,30.02,ENE,72,0.0,20.2,100,0.09,,RA,0.32,VWS V14.00,2013-04-04 22:09:00,
2013-04-04 18:14:00,35.0,35.0,30.01,ENE,60,0.0,20.2,100,0.08,,RA,0.32,VWS V14.00,2013-04-04 22:14:00,
2013-04-04 18:20:00,34.8,34.8,30.01,ENE,77,0.0,20.2,100,0.08,,RA,0.33,VWS V14.00,2013-04-04 22:20:00,
2013-04-04 18:25:00,34.8,34.8,30.02,NE,35,0.0,20.2,100,0.08,,RA,0.33,VWS V14.00,2013-04-04 22:25:00,
2013-04-04 18:30:00,33.4,33.4,30.01,ESE,104,0.0,20.2,100,0.07,,RA,0.33,VWS V14.00,2013-04-04 22:30:00,
2013-04-04 18:35:00,33.1,33.1,30.01,ESE,120,0.0,20.2,100,0.06,,RA,0.33,VWS V14.00,2013-04-04 22:35:00,
2013-04-04 18:40:00,32.4,32.4,30.01,ENE,69,13.0,20.2,100,0.07,,RA,0.34,VWS V14.00,2013-04-04 22:40:00,
2013-04-04 18:45:00,31.9,31.9,30.02,NE,39,6.1,20.2,100,0.06,,RA,0.34,VWS V14.00,2013-04-04 22:45:00,
2013-04-04 18:50:00,33.9,33.9,30.02,ENE,69,0.0,20.2,100,0.07,,RA,0.35,VWS V14.00,2013-04-04 22:50:00,
2013-04-04 18:55:00,34.1,34.1,30.02,ENE,72,0.0,20.2,100,0.08,,RA,0.37,VWS V14.00,2013-04-04 22:55:00,
2013-04-04 19:00:00,34.7,34.7,30.02,SSE,163,0.0,20.2,100,0.09,,RA,0.39,VWS V14.00,2013-04-04 23:00:00,
2013-04-04 19:05:00,34.2,34.2,30.00,East,83,7.6,20.2,100,0.09,,-RA,0.39,VWS V14.00,2013-04-04 23:05:00,
2013-04-04 19:10:00,34.1,34.1,30.00,East,79,0.0,20.2,100,0.11,,-RA,0.42,VWS V14.00,2013-04-04 23:10:00,
2013-04-04 19:15:00,32.9,32.9,30.00,East,82,0.0,20.2,100,0.12,,-RA,0.44,VWS V14.00,2013-04-04 23:15:00,
2013-04-04 19:20:00,33.7,33.7,30.00,East,79,0.0,20.2,100,0.12,,-RA,0.45,VWS V14.00,2013-04-04 23:20:00,
2013-04-04 19:25:00,35.3,35.3,30.01,NNE,27,7.0,20.2,100,0.12,,-RA,0.46,VWS V14.00,2013-04-04 23:25:00,
2013-04-04 19:30:00,33.9,33.9,29.99,ENE,77,5.4,20.2,100,0.13,,-RA,0.48,VWS V14.00,2013-04-04 23:30:00,
2013-04-04 19:35:00,33.3,33.3,29.98,East,87,0.0,20.2,100,0.14,,-RA,0.51,VWS V14.00,2013-04-04 23:35:00,
2013-04-04 19:40:00,33.3,33.3,29.99,NNE,15,0.0,20.2,100,0.15,,-RA,0.53,VWS V14.00,2013-04-04 23:40:00,
2013-04-04 19:45:00,34.3,34.3,30.00,North,11,0.0,20.2,100,0.15,,-RA,0.54,VWS V14.00,2013-04-04 23:45:00,
2013-04-04 19:50:00,34.8,34.8,30.00,NNE,24,0.0,20.2,100,0.14,,RA,0.54,VWS V14.00,2013-04-04 23:50:00,
2013-04-04 19:55:00,33.9,33.9,29.97,ESE,120,0.0,20.2,100,0.15,,RA,0.56,VWS V14.00,2013-04-04 23:55:00,
2013-04-04 20:00:00,34.0,34.0,29.98,NE,42,4.7,20.2,100,0.14,,RA,0.57,VWS V14.00,2013-04-05 00:00:00,
2013-04-04 20:05:00,34.8,34.8,29.99,NE,56,0.0,20.2,100,0.13,,-RA,0.57,VWS V14.00,2013-04-05 00:05:00,
2013-04-04 20:10:00,35.2,35.2,29.99,NNE,28,0.0,20.2,100,0.12,,-RA,0.57,VWS V14.00,2013-04-05 00:10:00,
2013-04-04 20:15:00,35.1,35.1,29.99,ENE,77,0.0,20.2,100,0.12,,-RA,0.58,VWS V14.00,2013-04-05 00:15:00,
2013-04-04 20:20:00,33.7,33.7,29.99,NNE,17,0.0,20.2,100,0.12,,-RA,0.59,VWS V14.00,2013-04-05 00:20:00,
2013-04-04 20:25:00,34.7,34.7,29.99,NNE,17,0.0,20.2,100,0.11,,-RA,0.59,VWS V14.00,2013-04-05 00:25:00,
2013-04-04 20:30:00,33.9,33.9,29.99,NNE,21,0.0,20.2,100,0.11,,-RA,0.60,VWS V14.00,2013-04-05 00:30:00,
2013-04-04 20:35:00,34.2,34.2,29.99,NE,41,7.5,20.2,100,0.10,,-RA,0.60,VWS V14.00,2013-04-05 00:35:00,
2013-04-04 20:40:00,34.1,34.1,29.99,NE,38,0.0,20.2,100,0.10,,-RA,0.60,VWS V14.00,2013-04-05 00:40:00,
2013-04-04 20:45:00,35.0,35.0,29.99,East,94,0.0,20.2,100,0.10,,-RA,0.61,VWS V14.00,2013-04-05 00:45:00,
2013-04-04 20:50:00,35.2,35.2,29.99,East,94,0.0,20.2,100,0.09,,-RA,0.62,VWS V14.00,2013-04-05 00:50:00,
2013-04-04 20:55:00,34.2,34.2,29.99,NNE,14,0.0,20.2,100,0.09,,-RA,0.62,VWS V14.00,2013-04-05 00:55:00,
2013-04-04 21:00:00,34.3,34.3,29.98,NNE,22,0.0,20.2,100,0.08,,-RA,0.62,VWS V14.00,2013-04-05 01:00:00,
2013-04-04 21:05:00,34.7,34.7,29.98,East,87,0.0,20.2,100,0.08,,-RA,0.62,VWS V14.00,2013-04-05 01:05:00,
2013-04-04 21:10:00,34.0,34.0,29.97,NNE,25,0.0,20.2,100,0.07,,-RA,0.62,VWS V14.00,2013-04-05 01:10:00,
2013-04-04 21:15:00,34.5,34.5,29.95,ESE,112,8.1,20.2,100,0.07,,-RA,0.62,VWS V14.00,2013-04-05 01:15:00,
2013-04-04 21:20:00,33.3,33.3,29.97,East,89,0.0,20.2,100,0.06,,-RA,0.62,VWS V14.00,2013-04-05 01:20:00,
2013-04-04 21:25:00,34.1,34.1,29.97,North,359,0.0,20.2,100,0.06,,-RA,0.62,VWS V14.00,2013-04-05 01:25:00,
2013-04-04 21:30:00,34.6,34.6,29.96,North,11,0.0,20.2,100,0.06,,-RA,0.63,VWS V14.00,2013-04-05 01:30:00,
2013-04-04 21:35:00,33.4,33.4,29.96,ENE,76,0.0,20.2,100,0.06,,-RA,0.63,VWS V14.00,2013-04-05 01:35:00,
2013-04-04 21:40:00,34.3,34.3,29.95,NNE,31,0.0,20.2,100,0.05,,-RA,0.63,VWS V14.00,2013-04-05 01:40:00,
2013-04-04 21:45:00,34.3,34.3,29.95,NNE,18,6.4,20.2,100,0.06,,-RA,0.64,VWS V14.00,2013-04-05 01:45:00,
2013-04-04 21:51:00,35.1,35.1,29.95,NE,34,0.0,20.2,100,0.06,,-RA,0.65,VWS V14.00,2013-04-05 01:51:00,
2013-04-04 21:56:00,34.9,34.9,29.95,NNE,32,5.3,20.2,100,0.07,,-RA,0.66,VWS V14.00,2013-04-05 01:56:00,
2013-04-04 22:01:00,33.0,33.0,29.94,NE,37,4.3,20.2,100,0.08,,-RA,0.68,VWS V14.00,2013-04-05 02:01:00,
2013-04-04 22:06:00,32.6,32.6,29.93,ESE,104,1.5,20.2,100,0.09,,-RA,0.70,VWS V14.00,2013-04-05 02:06:00,
2013-04-04 22:11:00,33.6,33.6,29.92,NNE,30,6.2,20.2,100,0.10,,-RA,0.72,VWS V14.00,2013-04-05 02:11:00,
2013-04-04 22:16:00,33.6,33.6,29.92,SE,125,0.0,20.2,100,0.10,,-RA,0.72,VWS V14.00,2013-04-05 02:16:00,
2013-04-04 22:21:00,34.2,34.2,29.92,NNE,15,1.3,20.2,100,0.10,,-RA,0.73,VWS V14.00,2013-04-05 02:21:00,
2013-04-04 22:27:00,34.4,34.4,29.92,NNE,22,0.0,20.2,100,0.09,,-RA,0.73,VWS V14.00,2013-04-05 02:27:00,
2013-04-04 22:31:00,34.1,34.1,29.93,NNE,15,4.7,20.2,100,0.09,,-RA,0.74,VWS V14.00,2013-04-05 02:31:00,
2013-04-04 22:37:00,34.9,34.9,29.93,NNE,15,0.0,20.2,100,0.09,,-RA,0.76,VWS V14.00,2013-04-05 02:37:00,
2013-04-04 22:41:00,34.4,34.4,29.93,ESE,110,0.0,20.2,100,0.11,,-RA,0.77,VWS V14.00,2013-04-05 02:41:00,
2013-04-04 22:47:00,35.2,35.2,29.92,NNE,30,4.7,20.2,100,0.10,,RA,0.77,VWS V14.00,2013-04-05 02:47:00,
2013-04-04 22:52:00,34.7,34.7,29.92,NNE,20,2.9,20.2,100,0.09,,RA,0.77,VWS V14.00,2013-04-05 02:52:00,
2013-04-04 22:57:00,34.3,34.3,29.92,NNE,15,0.0,20.2,100,0.09,,RA,0.78,VWS V14.00,2013-04-05 02:57:00,
2013-04-04 23:02:00,33.7,33.7,29.91,NNE,28,4.5,20.2,100,0.09,,RA,0.78,VWS V14.00,2013-04-05 03:02:00,
2013-04-04 23:07:00,34.8,34.8,29.90,NNE,31,2.9,20.2,100,0.08,,RA,0.78,VWS V14.00,2013-04-05 03:07:00,
2013-04-04 23:12:00,34.2,34.2,29.90,NE,34,0.0,20.2,100,0.07,,RA,0.78,VWS V14.00,2013-04-05 03:12:00,
2013-04-04 23:17:00,34.5,34.5,29.90,NNW,340,0.0,20.2,100,0.07,,RA,0.78,VWS V14.00,2013-04-05 03:17:00,
2013-04-04 23:22:00,34.4,34.4,29.90,North,4,0.0,20.2,100,0.07,,RA,0.79,VWS V14.00,2013-04-05 03:22:00,
2013-04-04 23:27:00,34.2,34.2,29.90,NNE,24,0.0,20.2,100,0.06,,RA,0.79,VWS V14.00,2013-04-05 03:27:00,
2013-04-04 23:32:00,34.3,34.3,29.90,NNE,24,0.0,20.2,100,0.07,,RA,0.80,VWS V14.00,2013-04-05 03:32:00,
2013-04-04 23:37:00,35.3,35.3,29.90,NNE,24,0.0,20.2,100,0.06,,RA,0.80,VWS V14.00,2013-04-05 03:37:00,
2013-04-04 23:42:00,34.7,34.7,29.89,NNE,15,0.0,20.2,100,0.06,,RA,0.80,VWS V14.00,2013-04-05 03:42:00,
2013-04-04 23:47:00,34.5,34.5,29.90,NNE,24,0.0,20.2,100,0.05,,-RA,0.80,VWS V14.00,2013-04-05 03:47:00,
2013-04-04 23:52:00,34.8,34.8,29.89,ENE,63,0.0,20.2,100,0.05,,-RA,0.80,VWS V14.00,2013-04-05 03:52:00,
2013-04-04 23:57:00,33.4,33.4,29.89,NNE,20,0.0,20.2,100,0.06,,-RA,0.81,VWS V14.00,2013-04-05 03:57:00,